TimeEST,TemperatureF,Dew PointF,Humidity,Sea Level PressureIn,VisibilityMPH,Wind Direction,Wind SpeedMPH,Gust SpeedMPH,PrecipitationIn,Events,Conditions,WindDirDegrees,DateUTC
12:37 AM,33.8,30.2,87,29.84,1.2,Calm,Calm,-,N/A,,Partly Cloudy,0,2014-01-15 05:37:00
12:42 AM,33.8,32.0,93,29.84,0.8,SW,3.5,-,N/A,,Mist,220,2014-01-15 05:42:00
12:53 AM,33.1,30.0,89,29.86,1.0,WSW,3.5,-,N/A,,Mist,240,2014-01-15 05:53:00
1:05 AM,30.2,30.2,100,29.85,0.5,Calm,Calm,-,N/A,Fog,Light Freezing Fog,0,2014-01-15 06:05:00
1:43 AM,30.2,28.4,93,29.88,1.2,Calm,Calm,-,N/A,,Partly Cloudy,0,2014-01-15 06:43:00
1:53 AM,32.0,28.9,88,29.88,1.0,Calm,Calm,-,N/A,,Mist,0,2014-01-15 06:53:00
2:15 AM,30.2,26.6,86,29.88,0.8,Calm,Calm,-,N/A,,Mist,0,2014-01-15 07:15:00
2:20 AM,30.2,28.4,93,29.89,1.5,SSW,3.5,-,N/A,,Partly Cloudy,210,2014-01-15 07:20:00
2:28 AM,28.4,26.6,93,29.89,2.5,Calm,Calm,-,N/A,,Partly Cloudy,0,2014-01-15 07:28:00
2:36 AM,32.0,28.4,87,29.89,1.0,Calm,Calm,-,N/A,,Mist,0,2014-01-15 07:36:00
2:44 AM,28.4,28.4,100,29.89,0.5,Calm,Calm,-,N/A,Fog,Light Freezing Fog,0,2014-01-15 07:44:00
2:53 AM,28.9,26.1,89,29.90,0.2,Calm,Calm,-,N/A,Fog,Light Freezing Fog,0,2014-01-15 07:53:00
3:08 AM,30.2,26.6,86,29.90,2.0,Calm,Calm,-,N/A,,Scattered Clouds,0,2014-01-15 08:08:00
3:12 AM,30.2,26.6,86,29.90,1.0,Calm,Calm,-,N/A,,Mist,0,2014-01-15 08:12:00
3:19 AM,28.4,24.8,86,29.90,0.2,Calm,Calm,-,N/A,Fog,Light Freezing Fog,0,2014-01-15 08:19:00
3:53 AM,27.0,24.1,89,29.93,0.5,Calm,Calm,-,N/A,Fog,Light Freezing Fog,0,2014-01-15 08:53:00
4:53 AM,28.0,25.0,88,29.95,0.5,Calm,Calm,-,N/A,Fog,Light Freezing Fog,0,2014-01-15 09:53:00
5:03 AM,26.6,23.0,86,29.94,1.8,Calm,Calm,-,N/A,,Mostly Cloudy,0,2014-01-15 10:03:00
5:06 AM,26.6,24.8,93,29.94,1.0,Calm,Calm,-,N/A,,Mist,0,2014-01-15 10:06:00
5:13 AM,26.6,24.8,93,29.94,0.5,Calm,Calm,-,N/A,Fog,Light Freezing Fog,0,2014-01-15 10:13:00
5:32 AM,26.6,23.0,86,29.95,1.5,Calm,Calm,-,N/A,,Scattered Clouds,0,2014-01-15 10:32:00
5:35 AM,26.6,24.8,93,29.95,3.0,Calm,Calm,-,N/A,,Scattered Clouds,0,2014-01-15 10:35:00
5:41 AM,24.8,21.2,86,29.95,1.2,Calm,Calm,-,N/A,,Scattered Clouds,0,2014-01-15 10:41:00
5:43 AM,26.6,21.2,80,29.96,0.8,Calm,Calm,-,N/A,,Mist,0,2014-01-15 10:43:00
5:53 AM,27.0,23.0,85,29.98,0.8,Calm,Calm,-,N/A,,Mist,0,2014-01-15 10:53:00
6:06 AM,28.4,24.8,86,29.97,1.2,Calm,Calm,-,N/A,,Partly Cloudy,0,2014-01-15 11:06:00
6:13 AM,26.6,23.0,86,29.97,0.8,Calm,Calm,-,N/A,,Mist,0,2014-01-15 11:13:00
6:23 AM,26.6,24.8,93,29.96,1.2,Calm,Calm,-,N/A,,Partly Cloudy,0,2014-01-15 11:23:00
6:32 AM,26.6,23.0,86,29.96,0.8,Calm,Calm,-,N/A,,Mist,0,2014-01-15 11:32:00
6:38 AM,26.6,23.0,86,29.96,1.2,Calm,Calm,-,N/A,,Scattered Clouds,0,2014-01-15 11:38:00
6:40 AM,26.6,21.2,80,29.96,2.0,Calm,Calm,-,N/A,,Mostly Cloudy,0,2014-01-15 11:40:00
6:50 AM,26.6,23.0,86,29.96,1.0,Calm,Calm,-,N/A,,Mist,0,2014-01-15 11:50:00
6:53 AM,27.0,24.1,89,29.98,0.8,Calm,Calm,-,N/A,,Mist,0,2014-01-15 11:53:00
7:53 AM,26.1,21.9,84,29.99,0.8,Calm,Calm,-,N/A,,Mist,0,2014-01-15 12:53:00
7:55 AM,26.6,21.2,80,29.98,2.5,Calm,Calm,-,N/A,,Scattered Clouds,0,2014-01-15 12:55:00
8:22 AM,26.6,26.6,100,29.98,3.0,Calm,Calm,-,N/A,,Clear,0,2014-01-15 13:22:00
8:53 AM,30.9,28.9,92,30.01,3.0,Calm,Calm,-,N/A,,Clear,0,2014-01-15 13:53:00
9:53 AM,37.9,34.0,86,30.01,4.0,Calm,Calm,-,N/A,,Clear,0,2014-01-15 14:53:00
10:53 AM,44.1,37.0,76,30.00,9.0,SE,5.8,-,N/A,,Clear,140,2014-01-15 15:53:00
11:53 AM,45.0,33.1,63,29.97,10.0,South,8.1,-,N/A,,Clear,180,2014-01-15 16:53:00
12:53 PM,46.0,30.9,56,29.96,10.0,South,8.1,-,N/A,,Mostly Cloudy,180,2014-01-15 17:53:00
1:53 PM,46.0,30.0,54,29.95,10.0,South,6.9,-,N/A,,Scattered Clouds,190,2014-01-15 18:53:00
2:53 PM,46.0,30.9,56,29.93,10.0,SE,6.9,-,N/A,,Partly Cloudy,140,2014-01-15 19:53:00
3:53 PM,45.0,32.0,60,29.93,10.0,SSE,8.1,-,N/A,,Overcast,160,2014-01-15 20:53:00
4:53 PM,44.1,32.0,63,29.94,10.0,Calm,Calm,-,N/A,,Overcast,0,2014-01-15 21:53:00
5:53 PM,41.0,33.1,73,29.93,10.0,SSE,8.1,-,N/A,,Overcast,150,2014-01-15 22:53:00
6:53 PM,39.0,34.0,82,29.93,9.0,Calm,Calm,-,N/A,,Partly Cloudy,0,2014-01-15 23:53:00
7:53 PM,34.0,30.0,85,29.92,4.0,Calm,Calm,-,N/A,,Clear,0,2014-01-16 00:53:00
8:09 PM,33.8,30.2,87,29.90,4.0,Calm,Calm,-,N/A,,Scattered Clouds,0,2014-01-16 01:09:00
8:53 PM,33.1,30.0,89,29.91,4.0,WSW,4.6,-,N/A,,Mostly Cloudy,240,2014-01-16 01:53:00
9:45 PM,33.8,30.2,87,29.90,4.0,Calm,Calm,-,N/A,,Overcast,0,2014-01-16 02:45:00
9:53 PM,34.0,30.9,89,29.91,4.0,Calm,Calm,-,N/A,,Overcast,0,2014-01-16 02:53:00
10:08 PM,35.6,30.2,81,29.90,4.0,Calm,Calm,-,N/A,,Overcast,0,2014-01-16 03:08:00
10:15 PM,35.6,30.2,81,29.90,4.0,Calm,Calm,-,N/A,,Overcast,0,2014-01-16 03:15:00
10:37 PM,33.8,32.0,93,29.89,4.0,Calm,Calm,-,N/A,,Overcast,0,2014-01-16 03:37:00
10:53 PM,35.1,32.0,89,29.90,4.0,Calm,Calm,-,N/A,,Overcast,0,2014-01-16 03:53:00
11:00 PM,35.6,32.0,87,29.89,4.0,Calm,Calm,-,N/A,,Overcast,0,2014-01-16 04:00:00
11:53 PM,34.0,32.0,92,29.89,3.0,Calm,Calm,-,N/A,,Overcast,0,2014-01-16 04:53:00